Location: Sternwarte Stuttgart
(48.7824°N, 9.1965°E)
Time: 03:58:06
(UTC+00:00)

Daily predictions for brighter satellites

Satellite Brightness Start Highest point End
(mag) Time Altitude Azimuth Time Altitude Azimuth Time Altitude Azimuth
Cosmos 2263 Rocket 4.3 00:02:53 11° ESE 00:05:06 13° E 00:07:45 10° ENE
Meteor 2-4 Rocket 4.3 00:02:11 10° NNW 00:07:49 46° W 00:09:25 37° SW
COSMOS 2428 4.3 00:07:14 10° NW 00:11:10 19° W 00:11:40 19° WSW
Cosmos 909 Rocket 4.3 00:09:09 40° S 00:11:34 65° ESE 00:19:13 10° NE
TSX-5 4.3 00:13:07 47° W 00:13:51 56° NW 00:18:31 10° NNE
Lacrosse 5 1.8 00:13:36 55° S 00:14:26 65° SE 00:19:28 10° ENE
Meteor 1-13 Rocket 4.2 00:08:39 10° NNW 00:14:29 78° W 00:16:17 45° S
Cosmos 1536 2.7 00:17:25 71° SE 00:17:43 76° E 00:21:46 10° NNE
Resurs 1-4 Rocket 3.4 00:13:28 10° NNE 00:18:10 31° E 00:20:14 24° SE
Okean 3 3.3 00:18:02 10° N 00:22:21 90° NW 00:22:58 65° S
Cosmos 1378 3.7 00:19:10 10° NNW 00:22:28 46° WNW 00:22:28 46° WNW
Cosmos 1743 3.1 00:22:44 49° ESE 00:23:02 50° E 00:26:45 10° NNE
SL-16 R/B 3.2 00:20:03 17° SE 00:24:39 51° ENE 00:30:37 10° N
Cosmos 1269 Rocket 4.4 00:24:18 37° WSW 00:26:08 57° WNW 00:31:22 10° NNE
Meteor 1-23 Rocket 4.3 00:21:54 10° N 00:27:39 79° ENE 00:30:09 36° SSE
Helios 1A 3.0 00:27:16 52° SE 00:28:13 76° ENE 00:32:27 10° N
Cosmos 1992 Rocket 3.9 00:23:58 10° NNW 00:29:12 73° WSW 00:30:41 47° S
Helios 1B rocket 4.4 00:26:20 10° NE 00:29:18 19° E 00:30:42 16° ESE
CZ-4 R/B 4.0 00:25:45 10° NNE 00:30:44 70° ESE 00:32:13 45° S
ATLAS 5 CENTAUR R/B 3.4 00:26:42 10° WNW 00:31:27 27° WSW 00:31:27 27° WSW
Cosmos 1666 4.4 00:36:50 22° W 00:37:21 22° WNW 00:40:26 10° NNW
Cosmos 2219 3.3 00:35:52 37° SW 00:38:10 70° WNW 00:43:57 10° NNE
Cosmos 2242 Rocket 4.4 00:36:11 10° NNW 00:40:13 35° W 00:40:36 35° WSW
Cosmos 1066 Rocket 4.5 00:34:31 10° NNW 00:40:17 59° W 00:42:15 39° SSW
ADEOS Rocket 3.5 00:36:46 15° SE 00:41:04 48° ENE 00:46:21 10° N
Cosmos 1544 3.3 00:41:02 56° W 00:41:08 56° WNW 00:44:43 10° N
Okean 1-7 3.9 00:39:16 10° NNW 00:43:03 32° W 00:43:17 32° W
Cosmos 192 4.2 00:38:34 10° NNW 00:43:31 89° SW 00:45:27 38° SSE
Cosmos 1869 Rocket 3.7 00:43:19 50° SW 00:44:16 66° WNW 00:48:45 10° N
Cosmos 2181 Rocket 4.1 00:39:27 10° NNW 00:45:45 66° W 00:48:21 36° SSW
Cosmos 546 4.5 00:42:39 10° WNW 00:46:36 79° SSW 00:50:30 10° ESE
UNK 4.2 00:45:21 26° SE 00:47:49 58° ENE 00:52:25 10° N
ADEOS II 3.6 00:46:18 10° NE 00:50:51 29° E 00:53:56 17° SE
Intercosmos 25 Rocket 4.2 00:51:40 35° WSW 00:52:32 40° WNW 00:57:29 10° N
ARGOS Delta rocket 3.9 00:50:13 10° N 00:54:51 59° WNW 00:56:08 42° SW
Cosmos 2082 3.7 00:53:27 38° SSW 00:55:45 82° ESE 01:01:31 10° NNE
Cosmos 1340 Rocket 4.4 00:55:32 22° W 00:56:17 23° WNW 00:59:29 10° NNW
Cosmos 2344 4.3 00:55:07 23° SSE 00:58:59 38° ESE 01:05:56 10° NE
NPP 4.1 00:55:21 10° NNE 01:00:40 55° E 01:03:19 28° SSE
BREEZE-M R/B 3.4 00:58:30 10° W 01:02:17 89° S 01:13:29 10° E
USA 267 4.3 00:56:32 10° ENE 01:02:40 45° N 01:08:48 10° WNW
SL-8 R/B 4.2 01:02:22 38° S 01:02:58 40° SSE 01:07:27 10° E
ASTEX 1 3.7 01:03:15 38° SW 01:04:36 49° W 01:09:23 10° NNW
CZ-2D R/B 2.2 01:03:56 10° NNE 01:09:22 78° ESE 01:11:59 32° S
Okean 2 4.0 01:05:16 10° N 01:09:23 53° ENE 01:11:44 23° SE
Cosmos 1238 Rocket 3.5 01:13:03 30° SE 01:14:06 40° E 01:17:39 10° NNE
BREEZE-M DEB (TANK) 2.7 01:09:08 10° W 01:14:12 58° S 01:17:04 10° ESE
Cosmos 1842 3.1 01:10:24 10° NNW 01:14:16 82° W 01:15:21 46° S
MOZ.5/SAFIR/RUBIN 5/SL-8 4.4 01:13:29 35° SW 01:14:34 40° W 01:19:02 10° NNW
Cosmos 1674 Rocket 3.7 01:10:16 10° N 01:14:43 75° ENE 01:17:01 28° SSE
Cosmos 2297 Rocket 3.4 01:13:56 18° WSW 01:17:28 34° NW 01:22:38 10° NNE
Cosmos 1140 Rocket 4.0 01:15:43 27° SSE 01:18:20 51° ESE 01:23:26 10° NNE
Cosmos 2221 Rocket 3.7 01:14:28 10° NNW 01:18:56 59° W 01:20:29 38° SSW
NOSS 3-3 (A) 4.4 01:16:19 27° S 01:19:09 47° ESE 01:25:20 10° NE
NOSS 3-3 (C) 4.4 01:16:26 27° S 01:19:15 47° ESE 01:25:25 10° NE
Cosmos 2237 Rocket 4.0 01:17:27 10° WNW 01:20:28 15° W 01:20:45 15° W
Nadezhda 3 Rocket 4.0 01:14:06 10° N 01:20:31 89° E 01:25:03 20° S
Cosmos 1975 3.0 01:19:06 36° S 01:20:38 70° E 01:24:42 10° NNE
CZ-4C R/B 2.9 01:15:40 10° NW 01:22:51 78° SW 01:31:14 10° SSE
Cosmos 2251 Rocket 3.7 01:21:51 31° SW 01:24:18 64° WNW 01:29:37 10° NNE
Cosmos 2327 Rocket 4.4 01:25:05 26° S 01:28:50 87° E 01:35:00 10° N
Cosmos 2227 Rocket 3.3 01:25:26 18° WSW 01:28:56 36° NW 01:34:09 10° NNE
Cosmos 1603 3.9 01:25:53 10° NNW 01:31:31 75° ENE 01:37:10 10° SSE
Cosmos 1378 Rocket 3.4 01:29:03 10° NNW 01:33:27 81° W 01:35:43 28° S
IDEFIX/ARIANE 42P 3.7 01:29:46 10° NNE 01:34:37 38° E 01:38:50 13° SSE
Iridium 4 Rocket 3.7 01:32:29 10° N 01:38:06 83° W 01:42:12 21° S
SL-24 R/B - RUBIN 2 4.0 01:33:02 10° NW 01:38:13 72° NE 01:42:48 10° SE
Cosmos 44 3.3 01:33:57 10° NW 01:39:12 67° WSW 01:44:07 10° SSE
Meteor 1-21 4.2 01:34:35 10° NNW 01:40:23 74° W 01:44:39 19° S
ATLAS CENTAUR R/B 1.9 01:41:34 28° S 01:43:04 43° ESE 01:46:52 10° NE
Cosmos 1295 Rocket 4.4 01:40:27 24° SSW 01:44:23 80° W 01:50:31 10° N
Meteor 2-9 Rocket 4.1 01:42:11 27° SSW 01:45:06 66° WNW 01:50:29 10° N
ARIANE 5 R/B 4.5 01:42:53 10° NE 01:47:06 24° E 01:51:18 10° SSE
SL-16 R/B 3.3 01:43:04 10° NW 01:47:35 25° WSW 01:49:02 22° SW
Cosmos 2263 Rocket 2.2 01:44:35 24° SSW 01:48:04 79° ESE 01:53:48 10° NNE
Cosmos 1908 Rocket 3.6 01:46:32 24° S 01:49:05 77° E 01:53:26 10° NNE
Cosmos 1733 Rocket 3.8 01:50:31 26° SW 01:52:28 39° WNW 01:56:41 10° N
Cosmos 2227 4.3 01:49:20 23° SSW 01:52:58 73° ESE 01:58:35 10° NNE
Meteor 1-28 Rocket 3.0 01:52:52 20° S 01:55:19 82° WSW 01:59:04 10° NNW
In-Cosmos 22 4.2 01:50:09 10° NNW 01:55:58 83° W 02:01:35 11° S
AQUA 4.0 01:52:40 10° N 01:57:22 59° WNW 02:00:11 23° SW
Lacrosse 5 2.8 01:52:48 10° W 01:57:39 44° NNW 02:02:31 10° NE
Resurs 1-4 Rocket 2.7 01:53:07 10° N 01:58:07 43° WNW 02:01:18 21° SW
Cosmos 1400 Rocket 4.5 01:55:24 10° SSE 01:58:47 29° E 02:02:12 10° NNE
Cosmos 2154 Rocket 4.2 01:55:31 22° SW 01:59:29 55° WNW 02:05:36 10° N
Cosmos 1461 3.4 02:00:29 22° WSW 02:03:15 59° NW 02:07:38 10° NNE
Helios 1B rocket 2.9 02:00:50 10° N 02:04:47 46° WNW 02:06:59 23° SW
SL-16 R/B 3.3 02:05:09 20° SW 02:08:29 32° W 02:13:59 10° NNW
IRS-1D 3.4 02:05:07 10° NNE 02:10:07 86° WNW 02:14:01 17° SSW
Landsat 4 3.6 02:06:57 10° NNE 02:10:41 89° ESE 02:13:08 20° SSW
USA 290 2.8 02:09:29 10° NNW 02:12:43 59° ENE 02:15:55 10° SE
Cosmos 676 Rocket 4.2 02:08:47 17° SSW 02:12:58 73° ESE 02:18:19 10° NNE
Cosmos 407 Rocket 3.9 02:12:19 19° SW 02:15:55 53° WNW 02:21:05 10° NNE
KORONAS-FOTON 3.8 02:12:25 10° N 02:16:22 83° W 02:20:17 10° S
Cosmos 1763 Rocket 3.8 02:12:22 10° NNW 02:17:42 71° ENE 02:22:58 10° SSE
Meteor 2-20 4.5 02:12:54 10° N 02:19:05 89° W 02:25:16 10° S
MSX 4.0 02:17:03 10° NNE 02:22:48 72° ESE 02:28:30 10° S
Spot 1 4.0 02:19:25 10° SSE 02:23:30 78° ENE 02:27:36 10° NNW
Cosmos 1943 3.4 02:18:24 10° NW 02:23:53 48° WSW 02:29:19 10° S
Cosmos 1805 3.7 02:21:20 10° S 02:25:10 60° E 02:29:02 10° NNE
DELTA 2 DEB (DPAF) 4.4 02:22:53 12° S 02:26:45 48° W 02:31:04 10° NNW
ADEOS Rocket 3.8 02:23:43 17° SW 02:26:55 27° W 02:31:34 10° NW
CZ-4C R/B 3.5 02:23:27 10° S 02:27:37 79° WSW 02:32:01 10° NNW
SL-8 Rocket 4.0 02:22:22 12° SSW 02:28:10 79° W 02:34:22 10° N
Cosmos 1707 3.8 02:25:05 10° NNW 02:28:20 27° W 02:30:18 18° SW
Cosmos 1626 2.2 02:24:39 10° N 02:28:22 79° E 02:32:02 10° SSE
Orbus 7S? 4.3 02:23:24 15° SW 02:29:52 60° SE 02:33:30 10° ENE
ADEOS II 2.6 02:25:42 10° N 02:30:43 46° WNW 02:34:53 15° SW
Cosmos 1356 Rocket 4.4 02:29:08 17° SW 02:31:35 31° WNW 02:35:10 10° N
Cosmos 1782 Rocket 3.6 02:28:29 14° SSW 02:32:09 70° W 02:36:34 10° N
Cosmos 2366 rocket 4.1 02:27:04 10° S 02:33:26 87° W 02:39:49 10° N
Cosmos 1733 3.5 02:31:01 10° S 02:34:49 65° E 02:38:38 10° NNE
Meteor 1-29 3.8 02:31:51 10° N 02:34:53 33° WNW 02:36:59 16° SW
Cosmos 1340 3.0 02:32:50 10° NNW 02:36:27 46° W 02:40:02 10° S
Okean 2 Rocket 4.0 02:35:47 10° SSE 02:40:08 49° E 02:44:31 10° NNE
Cosmos 540 Rocket 3.9 02:38:55 10° NNW 02:44:06 67° ENE 02:49:15 10° SSE
USA 267 4.2 02:38:45 10° E 02:45:00 50° NNE 02:51:17 10° WNW
SL-8 R/B 3.7 02:40:26 10° WSW 02:45:15 82° S 02:50:05 10° E
Cosmos 1346 Rocket 3.3 02:41:23 10° N 02:45:17 60° ENE 02:49:09 10° SSE
SL-14 R/B 3.4 02:42:01 10° N 02:45:56 78° E 02:49:51 10° SSE
Cosmos 1818 3.6 02:42:24 10° NW 02:47:52 66° WSW 02:53:15 10° SSE
CZ-2D R/B 3.8 02:45:02 10° NNW 02:48:50 20° WNW 02:52:40 10° WSW
Cosmos 1674 3.5 02:46:58 10° NNW 02:50:28 34° W 02:53:56 10° SSW
CBERS-1 4.4 02:46:08 10° N 02:51:06 50° WNW 02:56:02 10° SW
Cosmos 1536 Rocket 4.2 02:47:44 10° N 02:52:04 58° ENE 02:56:25 10° SSE
Sich 1 Rocket 3.6 02:47:54 10° S 02:52:18 89° ESE 02:56:47 10° N
IRS-1C 4.2 02:52:11 10° NNE 02:57:33 76° WNW 03:02:52 10° SSW
Cosmos 1766 3.2 02:55:55 10° S 02:59:48 85° W 03:03:46 10° N
Meteor 1-15 Rocket 4.4 02:53:55 10° S 02:59:50 88° W 03:05:44 10° NNE
NOSS 3-4 (A) 3.9 02:52:57 10° NW 02:59:52 68° SW 03:07:35 10° SSE
Cosmos 2151 Rocket 4.1 02:55:36 10° S 02:59:55 61° E 03:04:19 10° NNE
NOSS 3-4 (C) 3.9 02:53:03 10° NW 02:59:58 69° SW 03:07:42 10° SSE
Cosmos 1844 Rocket 3.1 02:54:24 10° SSW 03:00:00 66° ESE 03:05:39 10° NNE
Cosmos 1470 4.4 02:56:32 10° SSE 03:00:05 34° E 03:03:39 10° NNE
CZ-4B R/B 3.5 02:55:31 10° NNE 03:00:24 81° ESE 03:05:10 10° SSW
Cosmos 2218 Rocket 4.3 02:58:31 10° SSW 03:04:43 53° WNW 03:10:53 10° N
Cosmos 1727 Rocket 4.1 02:58:38 10° NNW 03:04:49 66° W 03:11:01 10° S
SL-08 R/B 3.5 03:00:32 10° S 03:05:26 63° WSW 03:10:22 10° NNW
Cosmos 1300 Rocket 3.6 03:02:02 10° SSW 03:06:20 68° W 03:10:44 10° N
USA 281 4.0 03:02:41 10° SE 03:09:06 60° ENE 03:15:33 10° NNW
Cosmos 468 Rocket 4.3 03:04:33 10° NNW 03:09:36 45° WSW 03:14:34 10° S
ATLAS 2AS CENTAUR R/B 2.9 03:02:10 10° NW 03:09:36 83° NE 03:16:25 10° SE
CZ-4C R/B 4.1 03:05:20 10° WNW 03:10:49 22° WSW 03:16:46 10° SSW
Meteor 1-24 Rocket 4.0 03:05:01 10° N 03:11:00 84° ENE 03:16:45 10° SSE
GEOS 3 Rocket 3.7 03:06:06 10° SSE 03:11:27 72° SW 03:16:47 10° NW
Cosmos 2344 4.0 03:05:44 10° WSW 03:13:00 57° NW 03:21:07 10° NE
Cosmos 1975 Rocket 4.1 03:09:26 10° NNW 03:13:09 27° W 03:16:48 10° SW
IDEFIX/ARIANE 42P 3.5 03:09:30 10° N 03:14:09 34° WNW 03:18:47 10° SW
BREEZE-M DEB (TANK) 3.0 03:09:56 10° WSW 03:17:12 83° S 03:19:52 10° E
Cosmos 1850 Rocket 4.1 03:12:46 10° SSW 03:18:04 83° WNW 03:23:22 10° NNE
Meteor 2-10 4.3 03:15:57 10° S 03:21:05 74° E 03:26:27 10° NNE
